User: anonymous   Login
Location: Fort Wayne
(41.1310°N, 85.1290°W)
Time: 05:34:51
(UTC-04:00)
Language:

COSMOS 2406 - Orbit

View from above orbital plane
View from above orbital plane
View from above satellite
View from above satellite

Ground track
Ground track

The orbit data is extracted from the following two-line orbital elements,

1 28352U 04021A   17295.94173262 -.00000140 +00000-0 -50799-4 0  9996
2 28352 071.0019 217.9467 0015637 269.6005 090.3324 14.11621617688830
Epoch (UTC): 22 October 2017 22:36:05
Eccentricity: 0.0015637
inclination: 71.0019°
perigee height: 842 km
apogee height: 865 km
right ascension of ascending node: 217.9467°
argument of perigee: 269.6005°
revolutions per day: 14.11621617
mean anomaly at epoch: 90.3324°
orbit number at epoch: 68883

The dashed part of the orbit path shows where the satellite is in the earth's shadow,  

DLR